When you browse on this site, cookies collect data to enhance your experience and personalize the content and advertising you see.
Visit our Privacy Policy to learn more. By continuing to use the site, you agree to this use of cookies and data.
  • In France
  • List of Countries
  • For 7 days
  • Water Temperature
  • Satellite Maps
  • Weather Map
  • Weather Widgets
  • user-avatar
    Login

    Hourly Weather Briton Ferry

    Today, 19 June, Wednesday

    Time Temperature Precipitation Wind Pressure Humidity
    00:00 +13°C° 0 mm 1 mps 754 mmHg 95%
    01:00 +13°C° 0.1 mm 1 mps 754 mmHg 95%
    02:00 +13°C° 0.1 mm 1 mps 753 mmHg 95%
    03:00 +13°C° 0.1 mm 2 mps 753 mmHg 94%
    04:00 +13°C° 0 mm 2 mps 753 mmHg 95%
    05:00 +13°C° 0 mm 2 mps 753 mmHg 95%
    06:00 +13°C° 0 mm 2 mps 753 mmHg 95%
    07:00 +14°C° 0 mm 2 mps 753 mmHg 93%
    08:00 +15°C° 0 mm 2 mps 753 mmHg 91%
    09:00 +15°C° 0 mm 2 mps 753 mmHg 89%
    10:00 +16°C° 0.1 mm 3 mps 753 mmHg 86%
    11:00 +17°C° 0.1 mm 4 mps 754 mmHg 83%
    12:00 +17°C° 0.1 mm 5 mps 754 mmHg 80%
    13:00 +17°C° 0.2 mm 5 mps 754 mmHg 78%
    14:00 +17°C° 0.2 mm 5 mps 753 mmHg 77%
    15:00 +17°C° 0.2 mm 6 mps 753 mmHg 76%
    16:00 +16°C° 0 mm 6 mps 753 mmHg 76%
    17:00 +15°C° 0 mm 6 mps 753 mmHg 77%
    18:00 +14°C° 0 mm 6 mps 753 mmHg 78%
    19:00 +13°C° 0 mm 5 mps 754 mmHg 83%
    20:00 +11°C° 0 mm 4 mps 754 mmHg 89%
    21:00 +10°C° 0 mm 3 mps 754 mmHg 95%
    22:00 +10°C° 0 mm 3 mps 754 mmHg 95%
    23:00 +10°C° 0 mm 3 mps 755 mmHg 96%

    Tomorrow, 20 June, Thursday

    Time Temperature Precipitation Wind Pressure Humidity
    00:00 +10°C° 0 mm 3 mps 755 mmHg 96%
    01:00 +10°C° 0 mm 3 mps 755 mmHg 96%
    02:00 +9°C° 0 mm 3 mps 755 mmHg 96%
    03:00 +9°C° 0 mm 2 mps 755 mmHg 96%
    04:00 +10°C° 0 mm 2 mps 755 mmHg 94%
    05:00 +12°C° 0 mm 2 mps 755 mmHg 91%
    06:00 +12°C° 0 mm 2 mps 755 mmHg 89%
    07:00 +12°C° 0.1 mm 3 mps 755 mmHg 87%
    08:00 +13°C° 0.1 mm 4 mps 756 mmHg 86%
    09:00 +14°C° 0.1 mm 5 mps 756 mmHg 84%
    10:00 +14°C° 0.3 mm 5 mps 756 mmHg 84%
    11:00 +14°C° 0.3 mm 6 mps 756 mmHg 83%
    12:00 +14°C° 0.3 mm 6 mps 756 mmHg 83%
    13:00 +14°C° 0.2 mm 6 mps 757 mmHg 81%
    14:00 +14°C° 0.2 mm 6 mps 757 mmHg 80%
    15:00 +15°C° 0.2 mm 6 mps 757 mmHg 79%
    16:00 +14°C° 0 mm 6 mps 757 mmHg 78%
    17:00 +14°C° 0 mm 6 mps 757 mmHg 78%
    18:00 +13°C° 0 mm 6 mps 757 mmHg 77%
    19:00 +12°C° 0 mm 5 mps 757 mmHg 82%
    20:00 +10°C° 0 mm 4 mps 758 mmHg 87%
    21:00 +8°C° 0 mm 4 mps 758 mmHg 92%
    22:00 +8°C° 0 mm 4 mps 758 mmHg 93%
    23:00 +8°C° 0 mm 4 mps 759 mmHg 94%

    Day after tomorrow, 21 June, Friday

    Time Temperature Precipitation Wind Pressure Humidity
    00:00 +8°C° 0 mm 3 mps 759 mmHg 94%
    01:00 +8°C° 0 mm 3 mps 759 mmHg 94%
    02:00 +8°C° 0 mm 2 mps 759 mmHg 93%
    03:00 +8°C° 0 mm 2 mps 759 mmHg 93%
    04:00 +8°C° 0 mm 2 mps 759 mmHg 91%
    05:00 +9°C° 0 mm 2 mps 760 mmHg 88%
    06:00 +10°C° 0 mm 1 mps 760 mmHg 86%
    07:00 +12°C° 0 mm 2 mps 760 mmHg 82%
    08:00 +12°C° 0 mm 3 mps 760 mmHg 77%
    09:00 +13°C° 0 mm 3 mps 761 mmHg 72%
    10:00 +14°C° 0 mm 4 mps 761 mmHg 72%
    11:00 +14°C° 0 mm 4 mps 761 mmHg 72%
    12:00 +14°C° 0 mm 4 mps 761 mmHg 71%
    13:00 +14°C° 0 mm 4 mps 761 mmHg 71%
    14:00 +15°C° 0 mm 4 mps 761 mmHg 71%
    15:00 +15°C° 0 mm 4 mps 761 mmHg 72%
    16:00 +14°C° 0 mm 4 mps 761 mmHg 74%
    17:00 +14°C° 0 mm 4 mps 761 mmHg 76%
    18:00 +13°C° 0 mm 4 mps 762 mmHg 78%
    19:00 +12°C° 0 mm 3 mps 762 mmHg 83%
    20:00 +10°C° 0 mm 2 mps 762 mmHg 87%
    21:00 +9°C° 0 mm 1 mps 762 mmHg 91%
    22:00 +9°C° 0 mm 1 mps 762 mmHg 91%
    23:00 +9°C° 0 mm 1 mps 762 mmHg 92%

    22 June, Saturday

    Time Temperature Precipitation Wind Pressure Humidity
    00:00 +7°C° 0 mm 0 mps 762 mmHg 92%
    01:00 +7°C° 0 mm 0 mps 762 mmHg 92%
    02:00 +7°C° 0 mm 0 mps 762 mmHg 91%
    03:00 +7°C° 0 mm 0 mps 762 mmHg 91%
    04:00 +9°C° 0 mm 1 mps 762 mmHg 89%
    05:00 +10°C° 0 mm 1 mps 762 mmHg 88%
    06:00 +11°C° 0 mm 1 mps 762 mmHg 87%
    07:00 +13°C° 0 mm 1 mps 762 mmHg 83%
    08:00 +14°C° 0 mm 1 mps 762 mmHg 80%
    09:00 +16°C° 0 mm 2 mps 762 mmHg 76%
    10:00 +16°C° 0 mm 2 mps 762 mmHg 74%
    11:00 +17°C° 0 mm 2 mps 762 mmHg 72%
    12:00 +18°C° 0 mm 2 mps 762 mmHg 71%
    13:00 +18°C° 0 mm 2 mps 762 mmHg 69%
    14:00 +19°C° 0 mm 1 mps 762 mmHg 67%
    15:00 +20°C° 0 mm 1 mps 762 mmHg 65%
    16:00 +19°C° 0 mm 1 mps 762 mmHg 66%
    17:00 +19°C° 0 mm 1 mps 761 mmHg 67%
    18:00 +19°C° 0 mm 1 mps 761 mmHg 68%
    19:00 +16°C° 0 mm 1 mps 762 mmHg 74%
    20:00 +15°C° 0 mm 1 mps 762 mmHg 79%
    21:00 +13°C° 0 mm 1 mps 762 mmHg 85%
    22:00 +13°C° 0 mm 1 mps 762 mmHg 86%
    23:00 +13°C° 0 mm 1 mps 762 mmHg 87%

    23 June, Sunday

    Time Temperature Precipitation Wind Pressure Humidity
    00:00 +12°C° 0 mm 2 mps 762 mmHg 88%
    01:00 +12°C° 0 mm 2 mps 762 mmHg 89%
    02:00 +12°C° 0 mm 2 mps 761 mmHg 90%
    03:00 +12°C° 0 mm 2 mps 761 mmHg 91%
    04:00 +12°C° 0 mm 3 mps 761 mmHg 90%
    05:00 +12°C° 0 mm 3 mps 761 mmHg 89%
    06:00 +13°C° 0 mm 3 mps 761 mmHg 88%
    07:00 +14°C° 0 mm 4 mps 761 mmHg 83%
    08:00 +15°C° 0 mm 5 mps 761 mmHg 78%
    09:00 +16°C° 0 mm 6 mps 761 mmHg 74%
    10:00 +17°C° 0 mm 6 mps 761 mmHg 72%
    11:00 +19°C° 0 mm 6 mps 761 mmHg 71%
    12:00 +19°C° 0 mm 6 mps 761 mmHg 70%
    13:00 +19°C° 0 mm 6 mps 760 mmHg 72%
    14:00 +19°C° 0 mm 6 mps 760 mmHg 75%
    15:00 +19°C° 0 mm 6 mps 760 mmHg 77%
    16:00 +17°C° 0.5 mm 6 mps 759 mmHg 82%
    17:00 +16°C° 0.5 mm 6 mps 759 mmHg 87%
    18:00 +15°C° 0.5 mm 5 mps 759 mmHg 92%
    19:00 +15°C° 0.6 mm 6 mps 759 mmHg 92%
    20:00 +15°C° 0.6 mm 7 mps 759 mmHg 92%
    21:00 +13°C° 0.6 mm 8 mps 759 mmHg 92%
    22:00 +13°C° 0.9 mm 9 mps 758 mmHg 92%
    23:00 +13°C° 0.9 mm 10 mps 758 mmHg 93%

    24 June, Monday

    Time Temperature Precipitation Wind Pressure Humidity
    00:00 +12°C° 0.9 mm 11 mps 758 mmHg 93%
    01:00 +12°C° 2.6 mm 11 mps 757 mmHg 94%
    02:00 +13°C° 2.6 mm 11 mps 757 mmHg 94%
    03:00 +13°C° 2.6 mm 11 mps 756 mmHg 95%
    04:00 +13°C° 0.4 mm 10 mps 756 mmHg 95%
    05:00 +14°C° 0.4 mm 10 mps 756 mmHg 94%
    06:00 +15°C° 0.4 mm 9 mps 756 mmHg 94%
    07:00 +15°C° 0.2 mm 9 mps 756 mmHg 94%
    08:00 +15°C° 0.2 mm 8 mps 757 mmHg 94%
    09:00 +15°C° 0.2 mm 8 mps 757 mmHg 94%
    10:00 +16°C° 0 mm 7 mps 757 mmHg 93%
    11:00 +17°C° 0 mm 7 mps 757 mmHg 92%
    12:00 +18°C° 0 mm 7 mps 757 mmHg 91%
    13:00 +19°C° 0 mm 6 mps 757 mmHg 90%
    14:00 +19°C° 0 mm 6 mps 757 mmHg 89%
    15:00 +20°C° 0 mm 6 mps 757 mmHg 88%
    16:00 +20°C° 0.1 mm 5 mps 757 mmHg 90%
    17:00 +20°C° 0.1 mm 4 mps 757 mmHg 92%
    18:00 +20°C° 0.1 mm 3 mps 757 mmHg 94%
    19:00 +19°C° 0.1 mm 2 mps 757 mmHg 95%
    20:00 +19°C° 0.1 mm 2 mps 758 mmHg 96%
    21:00 +19°C° 0.1 mm 1 mps 759 mmHg 97%
    22:00 +19°C° 0 mm 1 mps 759 mmHg 97%
    23:00 +18°C° 0 mm 1 mps 759 mmHg 97%
    Show more